WA3AFS Weather Reports


time (UTC)temp
F
wind
direction
speed
knots
gust
knots
rain 1hr
in
rain 24hr
in
rain mn
in
humidity
%
barometer
mb
20260504070235 48 230 1.7 3.5 0.00 0.00 0.00 59 1009.3
20260504060237 45 131 0.9 1.7 0.00 0.00 0.00 71 1009.4
20260504050730 46 207 0.0 0.0 0.00 0.00 0.00 68 1009.7
20260504050243 47 207 0.0 0.0 0.00 0.00 0.00 67 1009.7
20260504045738 47 181 0.0 0.0 0.00 0.00 0.00 65 1009.8
20260504045251 47 181 0.0 0.0 0.00 0.00 0.00 66 1010.1
20260504044757 47 181 0.0 0.0 0.00 0.00 0.00 67 1010.3
20260504044246 47 181 0.0 0.0 0.00 0.00 0.00 66 1010.3
20260504043736 47 170 0.0 0.0 0.00 0.00 0.00 64 1010.4
20260504043231 47 171 0.0 0.0 0.00 0.00 0.00 65 1010.4
20260504042742 47 170 0.0 0.0 0.00 0.00 0.00 66 1010.4
20260504042233 47 170 0.0 1.7 0.00 0.00 0.00 65 1010.5
20260504041727 47 114 1.7 1.7 0.00 0.00 0.00 63 1010.6
20260504041239 47 302 0.9 1.7 0.00 0.00 0.00 66 1010.6
20260504040733 47 301 0.0 1.7 0.00 0.00 0.00 66 1010.6
20260504040244 47 216 0.9 2.6 0.00 0.00 0.00 65 1010.5
20260504035757 47 292 0.9 2.6 0.00 0.00 0.00 60 1010.4
20260504035305 46 168 0.9 2.6 0.00 0.00 0.00 61 1010.3
20260504034736 46 267 0.9 2.6 0.00 0.00 0.00 67 1010.4
20260504034228 46 291 1.7 2.6 0.00 0.00 0.00 67 1010.3
20260504033736 46 261 0.9 2.6 0.00 0.00 0.00 66 1010.2
20260504033246 46 271 0.0 2.6 0.00 0.00 0.00 65 1010.1
20260504032758 46 271 1.7 2.6 0.00 0.00 0.00 67 1010.3
20260504032229 46 259 0.9 1.7 0.00 0.00 0.00 65 1010.1
20260504031802 46 258 0.9 2.6 0.00 0.00 0.00 63 1010.1
20260504031232 45 258 1.7 2.6 0.00 0.00 0.00 65 1010.1
20260504030806 45 256 0.9 2.6 0.00 0.00 0.00 67 1010.0
20260504030233 44 256 1.7 1.7 0.00 0.00 0.00 67 1010.1
20260504025744 44 259 0.9 1.7 0.00 0.00 0.00 70 1010.1
20260504025237 43 259 0.9 1.7 0.00 0.00 0.00 71 1010.1
20260504024730 43 259 0.9 2.6 0.00 0.00 0.00 71 1010.1
20260504024244 43 259 0.9 2.6 0.00 0.00 0.00 71 1010.1
20260504023736 42 265 1.7 2.6 0.00 0.00 0.00 71 1010.2
20260504023245 42 280 0.9 1.7 0.00 0.00 0.00 72 1010.1
20260504022738 42 280 0.9 0.9 0.00 0.00 0.00 70 1010.3
20260504022307 43 280 0.9 0.9 0.00 0.00 0.00 71 1010.2
20260504021737 43 280 0.9 0.9 0.00 0.00 0.00 69 1010.2
20260504021229 43 280 0.9 0.9 0.00 0.00 0.00 69 1010.2
20260504020741 43 280 0.9 1.7 0.00 0.00 0.00 69 1010.3
20260504020253 43 280 0.9 1.7 0.00 0.00 0.00 70 1010.2
20260504015743 43 280 0.9 2.6 0.00 0.00 0.00 67 1010.3
20260504015255 43 289 1.7 2.6 0.00 0.00 0.00 67 1010.2
20260504014746 43 260 0.9 2.6 0.00 0.00 0.00 67 1010.2
20260504014257 43 235 1.7 3.5 0.00 0.00 0.00 66 1010.1
20260504013806 43 281 0.9 2.6 0.00 0.00 0.00 64 1010.2
20260504013236 43 257 1.7 2.6 0.00 0.00 0.00 64 1010.1
20260504012749 44 270 0.0 0.0 0.00 0.00 0.00 63 1010.1
20260504012239 44 284 0.0 0.0 0.00 0.00 0.00 64 1010.1
20260504011753 44 285 0.0 0.0 0.00 0.00 0.00 65 1009.9
20260504011241 44 258 0.0 0.0 0.00 0.00 0.00 63 1009.9
20260504010753 44 285 0.0 0.0 0.00 0.00 0.00 62 1009.8
20260504010244 44 229 0.0 2.6 0.00 0.00 0.00 59 1009.7
20260504005739 45 268 0.9 2.6 0.00 0.00 0.00 63 1009.6
20260504005233 45 275 0.9 2.6 0.00 0.00 0.00 60 1009.6
20260504004746 46 294 0.9 2.6 0.00 0.00 0.00 59 1009.6
20260504004240 46 291 0.9 2.6 0.00 0.00 0.00 57 1009.6
20260504003752 46 291 0.9 2.6 0.00 0.00 0.00 56 1009.5
20260504003302 47 289 0.9 2.6 0.00 0.00 0.00 57 1009.6
20260504002749 47 287 0.0 1.7 0.00 0.00 0.00 53 1009.5
20260504002242 48 280 0.0 1.7 0.00 0.00 0.00 52 1009.4
20260504001736 48 280 0.9 1.7 0.00 0.00 0.00 50 1009.4
20260504001229 49 280 0.0 1.7 0.00 0.00 0.00 48 1009.5
20260504000740 50 280 0.0 1.7 0.00 0.00 0.00 48 1009.3
20260504000234 50 280 0.0 1.7 0.00 0.00 0.00 46 1009.3
20260503235804 51 280 0.9 1.7 0.00 0.00 0.00 49 1009.3
20260503235235 51 4 0.0 0.9 0.00 0.00 0.00 43 1009.1
20260503234746 51 4 0.0 1.7 0.00 0.00 0.00 42 1009.2
20260503234258 52 4 0.0 1.7 0.00 0.00 0.00 45 1009.1
20260503233731 52 64 0.9 1.7 0.00 0.00 0.00 42 1009.0
20260503233243 52 272 0.0 2.6 0.00 0.00 0.00 43 1009.0
20260503232735 52 31 0.9 2.6 0.00 0.00 0.00 41 1008.9
20260503232245 53 64 0.9 3.5 0.00 0.00 0.00 38 1008.9
20260503231736 53 288 1.7 4.3 0.00 0.00 0.00 38 1008.7
20260503231249 53 277 1.7 3.5 0.00 0.00 0.00 39 1008.6
20260503230741 53 16 0.9 3.5 0.00 0.00 0.00 36 1008.7
20260503230234 53 339 1.7 7.0 0.00 0.00 0.00 36 1008.5
20260503225746 54 45 3.5 7.0 0.00 0.00 0.00 35 1008.6
20260503225236 54 70 2.6 7.0 0.00 0.00 0.00 34 1008.6
20260503224728 54 333 1.7 7.0 0.00 0.00 0.00 34 1008.5
20260503224238 54 48 2.6 7.0 0.00 0.00 0.00 34 1008.5
20260503223733 54 23 1.7 8.7 0.00 0.00 0.00 32 1008.5
20260503223240 54 68 3.5 8.7 0.00 0.00 0.00 32 1008.6
20260503222731 54 339 2.6 12.2 0.00 0.00 0.00 31 1008.5
20260503222301 55 48 4.3 12.2 0.00 0.00 0.00 30 1008.5
20260503221732 56 4 1.7 4.3 0.00 0.00 0.00 30 1008.4
20260503221307 56 272 2.6 6.1 0.00 0.00 0.00 30 1008.3
20260503220735 55 293 2.6 11.3 0.00 0.00 0.00 29 1008.2
20260503220307 55 316 5.2 11.3 0.00 0.00 0.00 29 1008.3
20260503215739 55 64 5.2 13.9 0.00 0.00 0.00 29 1008.3
20260503215230 55 51 6.1 13.9 0.00 0.00 0.00 29 1008.3
20260503214745 55 8 6.1 10.4 0.00 0.00 0.00 29 1008.4
20260503214237 55 37 4.3 7.8 0.00 0.00 0.00 29 1008.4
20260503213728 56 18 2.6 7.8 0.00 0.00 0.00 28 1008.2
20260503213240 56 60 2.6 9.6 0.00 0.00 0.00 28 1008.3
20260503212734 56 306 4.3 7.8 0.00 0.00 0.00 28 1008.2
20260503212247 56 307 2.6 10.4 0.00 0.00 0.00 30 1008.3
20260503211736 56 267 6.1 10.4 0.00 0.00 0.00 27 1008.2
20260503211248 56 283 2.6 9.6 0.00 0.00 0.00 28 1008.1
20260503210739 56 59 2.6 9.6 0.00 0.00 0.00 28 1008.1
20260503210253 56 270 5.2 8.7 0.00 0.00 0.00 28 1008.2
20260503205741 56 54 4.3 12.2 0.00 0.00 0.00 28 1008.3
20260503205235 55 318 5.2 12.2 0.00 0.00 0.00 29 1008.3
20260503204727 56 232 3.5 11.3 0.00 0.00 0.00 29 1008.4
20260503204300 55 303 4.3 11.3 0.00 0.00 0.00 28 1008.4
20260503203751 56 42 3.5 8.7 0.00 0.00 0.00 28 1008.4
20260503203242 55 276 4.3 10.4 0.00 0.00 0.00 30 1008.5
20260503202732 55 51 4.3 8.7 0.00 0.00 0.00 30 1008.4
20260503202244 55 48 2.6 9.6 0.00 0.00 0.00 30 1008.5
20260503201736 55 308 4.3 9.6 0.00 0.00 0.00 31 1008.6
20260503201229 55 22 4.3 9.6 0.00 0.00 0.00 29 1008.6
20260503200741 55 328 3.5 7.8 0.00 0.00 0.00 30 1008.7
20260503200233 55 50 2.6 6.1 0.00 0.00 0.00 33 1008.7
20260503195747 55 285 4.3 7.0 0.00 0.00 0.00 34 1008.7
20260503195236 55 33 2.6 7.0 0.00 0.00 0.00 33 1008.9
20260503194746 55 18 2.6 8.7 0.00 0.00 0.00 34 1008.9
20260503194239 54 300 4.3 10.4 0.00 0.00 0.00 34 1008.9
20260503193730 53 53 3.5 10.4 0.00 0.00 0.00 36 1009.0
20260503193243 54 343 4.3 9.6 0.00 0.00 0.00 37 1009.1
20260503192734 54 307 5.2 9.6 0.00 0.00 0.00 33 1009.1
20260503192228 54 342 3.5 11.3 0.00 0.00 0.00 38 1009.2
20260503191740 54 283 5.2 10.4 0.00 0.00 0.00 34 1009.3
20260503191233 54 21 2.6 7.0 0.00 0.00 0.00 37 1009.2
20260503190745 53 291 2.6 9.6 0.00 0.00 0.00 35 1009.2
20260503190238 53 11 3.5 9.6 0.00 0.00 0.00 36 1009.5
20260503185730 53 289 4.3 9.6 0.00 0.00 0.00 37 1009.4
20260503185241 53 12 3.5 7.8 0.00 0.00 0.00 36 1009.4
20260503184733 52 359 0.9 9.6 0.00 0.00 0.00 38 1009.4
20260503184242 52 69 4.3 9.6 0.00 0.00 0.00 37 1009.5
20260503183735 52 57 1.7 9.6 0.00 0.00 0.00 38 1009.5
20260503183246 52 75 4.3 9.6 0.00 0.00 0.00 39 1009.6
20260503182757 51 31 3.5 8.7 0.00 0.00 0.00 38 1009.6
20260503182229 51 289 3.5 10.4 0.00 0.00 0.00 38 1009.7
20260503181740 51 297 3.5 10.4 0.00 0.00 0.00 38 1009.7
20260503181230 51 339 1.7 15.6 0.00 0.00 0.00 41 1009.8
20260503180741 50 63 1.7 15.6 0.00 0.00 0.00 42 1009.7
20260503180232 50 280 3.5 8.7 0.00 0.00 0.00 45 1010.0
20260503175744 50 354 4.3 8.7 0.00 0.00 0.00 41 1009.9
20260503175237 50 354 4.3 7.8 0.00 0.00 0.00 40 1009.8
20260503174731 50 8 2.6 5.2 0.00 0.00 0.00 42 1010.0
20260503174243 49 59 1.7 8.7 0.00 0.00 0.00 42 1009.9
20260503173734 49 289 3.5 12.2 0.00 0.00 0.00 42 1010.1
20260503173246 49 10 5.2 12.2 0.00 0.00 0.00 43 1010.1
20260503172739 49 306 3.5 7.0 0.00 0.00 0.00 43 1010.2
20260503172232 49 26 4.3 7.0 0.00 0.00 0.00 41 1010.1
20260503171806 49 328 4.3 8.7 0.00 0.00 0.00 42 1010.2
20260503171236 49 36 4.3 9.6 0.00 0.00 0.00 41 1010.4
20260503170729 48 338 4.3 12.2 0.00 0.00 0.00 41 1010.2
20260503170241 48 354 5.2 12.2 0.00 0.00 0.00 44 1010.3
20260503150747 48 59 4.3 8.7 0.00 0.00 0.00 38 1010.5
20260503150240 49 11 5.2 8.7 0.00 0.00 0.00 39 1010.5
20260503140253 46 59 4.3 7.8 0.00 0.00 0.00 55 1010.5
20260503131248 44 73 2.6 7.0 0.00 0.00 0.00 59 1010.9
20260503130738 44 314 1.7 11.3 0.00 0.00 0.00 60 1011.0
20260503130252 43 295 5.2 13.9 0.00 0.00 0.00 59 1011.0
20260503110741 40 345 6.1 11.3 0.00 0.00 0.00 70 1010.0
20260503110252 40 341 4.3 8.7 0.00 0.00 0.00 70 1010.1
20260503090258 40 283 3.5 6.1 0.00 0.00 0.00 71 1010.0
20260503081230 39 309 0.9 6.1 0.00 0.00 0.00 71 1010.1
20260503080741 39 277 2.6 6.1 0.00 0.00 0.00 71 1010.2
20260503080234 39 349 1.7 6.1 0.00 0.00 0.00 71 1010.3
20260503072744 39 301 4.3 9.6 0.00 0.00 0.00 71 1010.3
20260503072237 39 306 3.5 13.0 0.00 0.00 0.00 71 1010.5
20260503071749 39 280 3.5 13.0 0.00 0.00 0.00 71 1010.5
20260503071256 39 324 6.1 13.0 0.00 0.00 0.00 71 1010.6
20260503070746 39 314 6.1 11.3 0.00 0.00 0.00 72 1010.6